TimeCST,TemperatureF,Dew PointF,Humidity,Sea Level PressureIn,VisibilityMPH,Wind Direction,Wind SpeedMPH,Gust SpeedMPH,PrecipitationIn,Events,Conditions,WindDirDegrees,DateUTC
12:07 AM,37.4,33.8,87,30.15,10.0,SSW,3.5,-,N/A,,Overcast,200,2012-11-08 06:07:00
12:45 AM,37.4,33.8,87,30.14,10.0,South,3.5,-,N/A,,Overcast,190,2012-11-08 06:45:00
12:53 AM,37.9,34.0,86,30.17,10.0,SSW,3.5,-,N/A,,Overcast,210,2012-11-08 06:53:00
1:28 AM,39.2,33.8,81,30.15,10.0,SSW,6.9,-,N/A,,Overcast,200,2012-11-08 07:28:00
1:53 AM,37.4,33.8,87,30.15,10.0,SSW,3.5,-,N/A,,Overcast,210,2012-11-08 07:53:00
2:53 AM,37.9,33.1,83,30.17,10.0,South,5.8,-,N/A,,Overcast,170,2012-11-08 08:53:00
3:53 AM,37.0,33.1,86,30.17,10.0,South,5.8,-,N/A,,Overcast,180,2012-11-08 09:53:00
4:53 AM,36.0,32.0,86,30.16,10.0,South,6.9,-,N/A,,Overcast,180,2012-11-08 10:53:00
5:53 AM,33.1,30.0,89,30.16,8.0,South,5.8,-,N/A,,Clear,190,2012-11-08 11:53:00
6:53 AM,32.0,30.0,92,30.17,5.0,South,3.5,-,N/A,,Clear,180,2012-11-08 12:53:00
7:53 AM,35.1,33.1,92,30.17,5.0,South,8.1,-,N/A,,Clear,170,2012-11-08 13:53:00
8:53 AM,39.0,34.0,82,30.17,9.0,South,13.8,-,N/A,,Clear,190,2012-11-08 14:53:00
9:53 AM,43.0,34.0,71,30.16,10.0,South,17.3,-,N/A,,Clear,190,2012-11-08 15:53:00
10:53 AM,45.0,35.1,68,30.16,10.0,South,17.3,-,N/A,,Clear,190,2012-11-08 16:53:00
11:53 AM,46.9,36.0,66,30.13,10.0,South,15.0,-,N/A,,Clear,180,2012-11-08 17:53:00
12:53 PM,48.0,36.0,63,30.10,10.0,South,13.8,-,N/A,,Clear,180,2012-11-08 18:53:00
1:53 PM,48.9,37.0,64,30.08,10.0,South,15.0,-,N/A,,Clear,170,2012-11-08 19:53:00
2:53 PM,48.9,36.0,61,30.05,10.0,South,16.1,-,N/A,,Clear,170,2012-11-08 20:53:00
3:53 PM,48.0,37.0,66,30.04,10.0,South,15.0,-,N/A,,Clear,180,2012-11-08 21:53:00
4:53 PM,44.1,36.0,73,30.04,10.0,South,9.2,-,N/A,,Clear,180,2012-11-08 22:53:00
5:53 PM,42.1,36.0,79,30.04,10.0,South,10.4,-,N/A,,Clear,170,2012-11-08 23:53:00
6:53 PM,42.1,36.0,79,30.04,10.0,South,12.7,-,N/A,,Clear,180,2012-11-09 00:53:00
7:53 PM,41.0,36.0,82,30.04,10.0,South,10.4,-,N/A,,Clear,180,2012-11-09 01:53:00
8:53 PM,39.0,35.1,86,30.05,9.0,South,9.2,-,N/A,,Clear,180,2012-11-09 02:53:00
9:53 PM,36.0,34.0,93,30.06,8.0,South,4.6,-,N/A,,Clear,190,2012-11-09 03:53:00
10:53 PM,37.9,35.1,89,30.05,8.0,South,6.9,-,N/A,,Clear,170,2012-11-09 04:53:00
11:53 PM,39.0,35.1,86,30.06,7.0,SSE,5.8,-,N/A,,Clear,160,2012-11-09 05:53:00